EDT,Max TemperatureF,Mean TemperatureF,Min TemperatureF,Max Dew PointF,MeanDew PointF,Min DewpointF,Max Humidity, Mean Humidity, Min Humidity, Max Sea Level PressureIn, Mean Sea Level PressureIn, Min Sea Level PressureIn, Max VisibilityMiles, Mean VisibilityMiles, Min VisibilityMiles, Max Wind SpeedMPH, Mean Wind SpeedMPH, Max Gust SpeedMPH,PrecipitationIn, CloudCover, Events, WindDirDegrees
2013-10-1,78,66,53,61,58,54,100,81,44,30.15,30.09,30.06,10,10,10,10,2,,0.00,1,,26
2013-10-2,86,70,53,63,59,54,100,81,40,30.16,30.12,30.08,10,10,10,13,2,,0.00,0,,52
2013-10-3,80,68,57,72,66,57,100,86,61,30.16,30.13,30.10,10,8,1,9,2,,0.00,4,,88
2013-10-4,84,74,64,75,70,64,100,82,58,30.15,30.12,30.08,10,8,0,13,2,,0.00,4,Fog,92
2013-10-5,84,72,60,73,67,61,100,84,51,30.14,30.10,30.06,10,8,0,12,2,,0.00,2,Fog,86
2013-10-6,82,73,64,77,72,64,100,92,70,30.07,30.01,29.96,10,8,0,12,3,,0.06,4,Fog-Rain,123
2013-10-7,80,76,71,77,74,72,100,96,79,29.96,29.89,29.83,10,9,1,14,5,26,0.89,5,Rain-Thunderstorm,137
2013-10-8,71,64,57,72,61,57,100,98,94,30.10,29.99,29.87,10,9,2,23,10,31,0.17,8,Rain-Thunderstorm,4
2013-10-9,73,64,55,63,59,55,100,86,65,30.09,30.05,30.03,10,10,10,17,12,23,0.00,7,,348
2013-10-10,71,64,57,63,58,55,100,81,64,30.04,30.01,29.97,10,10,10,15,8,24,0.00,6,,315
2013-10-11,78,70,62,68,64,61,100,86,57,30.01,29.96,29.92,10,10,10,12,3,17,0.00,7,Rain,275
2013-10-12,80,72,64,70,65,63,100,82,54,30.07,30.01,29.95,10,10,10,9,2,,0.00,5,,348
2013-10-13,71,68,64,68,67,64,100,94,78,30.14,30.10,30.06,10,10,5,12,4,17,0.00,6,Rain,347
2013-10-14,78,72,66,68,66,63,100,89,61,30.14,30.10,30.06,10,10,10,17,11,24,0.00,8,Thunderstorm,14
2013-10-15,71,66,60,64,62,59,100,87,69,30.13,30.07,30.02,10,10,10,13,9,21,0.00,7,,18
2013-10-16,71,68,62,66,64,61,100,92,73,30.06,30.02,29.98,10,9,3,9,4,,0.00,6,,4
2013-10-17,82,73,64,68,66,64,100,78,54,30.01,29.96,29.91,10,10,5,9,2,16,0.00,1,,208
2013-10-18,80,76,71,73,72,70,100,83,70,30.00,29.95,29.91,10,8,0,8,2,,0.22,7,Fog-Rain,252
2013-10-19,80,74,68,73,70,64,100,87,70,29.97,29.92,29.88,10,6,0,8,2,,0.13,7,Fog-Rain-Thunderstorm,256
2013-10-20,69,62,55,64,57,54,100,82,60,30.09,30.01,29.92,10,10,10,14,5,20,0.00,5,Rain,18
2013-10-21,69,62,55,63,58,54,100,88,68,30.13,30.08,30.03,10,10,10,10,5,,0.00,5,,21
2013-10-22,68,64,59,64,60,55,100,92,73,30.03,29.96,29.87,10,10,7,5,0,,0.04,4,Rain,262
2013-10-23,71,60,50,63,50,43,100,70,41,30.03,29.84,29.77,10,8,1,16,5,26,0.04,3,Rain,271
2013-10-24,62,50,39,46,39,34,100,69,39,30.21,30.14,30.03,10,10,10,10,5,,0.00,0,,316
2013-10-25,60,50,41,48,40,34,100,74,39,30.37,30.26,30.16,10,10,10,16,5,20,0.00,2,,342
2013-10-26,64,48,33,48,40,34,100,75,45,30.35,30.26,30.16,10,10,10,9,4,,0.00,0,,322
2013-10-27,71,54,37,55,46,37,100,83,45,30.16,30.13,30.08,10,10,10,7,1,,0.00,0,,250
2013-10-28,71,60,48,64,57,48,100,82,60,30.28,30.22,30.15,10,10,4,5,0,,0.00,4,,257
2013-10-29,75,68,59,61,59,57,100,74,57,30.34,30.29,30.25,10,8,0,9,1,,0.00,2,Fog,106
2013-10-30,77,70,62,64,60,57,100,71,50,30.34,30.27,30.21,10,7,0,10,1,,0.00,3,Fog,134
2013-10-31,78,66,53,70,66,54,100,83,61,30.23,30.14,30.00,10,10,4,14,2,20,0.00,2,,159